This is the latest recevied weather packets stored in our database for station/object XE2RCS-1. If no packets are shown the sender has not sent any weather packets the latest 10 day(s).
| Time | Temp. | Humidity | Pressure | Rain* | Wind** | Luminosity | Snow |
|---|---|---|---|---|---|---|---|
| 1788464826 | 30° C | 36% | 1011 hPa | 0 mm | - | - | - |
| 1788464225 | 30.56° C | 39% | 1011 hPa | 0 mm | - | - | - |
| 1788463625 | 30.56° C | 37% | 1017 hPa | 0 mm | - | - | - |
| 1788463024 | 30.56° C | 31% | 1016 hPa | 0 mm | - | - | - |
| 1788462423 | 30.56° C | 31% | 1016 hPa | 0 mm | - | - | - |
| 1788461823 | 30° C | 32% | 1014 hPa | 0 mm | - | - | - |
| 1788461222 | 30° C | 32% | 1013 hPa | 0 mm | - | - | - |
| 1788460621 | 28.89° C | 33% | 1013 hPa | 0 mm | - | - | - |
| 1788460021 | 28.89° C | 33% | 1014 hPa | 0 mm | - | - | - |
| 1788459420 | 28.89° C | 34% | 1014 hPa | 0 mm | - | - | - |
| 1788458819 | 28.89° C | 35% | 1014 hPa | 0 mm | - | - | - |
| 1788458218 | 28.89° C | 36% | 1014 hPa | 0 mm | - | - | - |
| 1788457618 | 28.33° C | 37% | 1014 hPa | 0 mm | - | - | - |
| 1788457017 | 28.89° C | 37% | 1014 hPa | 0 mm | - | - | - |
| 1788456416 | 28.89° C | 36% | 1019 hPa | 0 mm | - | - | - |
| 1788455815 | 28.89° C | 36% | 1019 hPa | 0 mm | - | - | - |
| 1788455215 | 28.33° C | 37% | 1019 hPa | 0 mm | - | - | - |
| 1788454614 | 29.44° C | 37% | 1017 hPa | 0 mm | - | - | - |
| 1788454014 | 28.33° C | 39% | 1017 hPa | 0 mm | - | - | - |
| 1788453413 | 27.78° C | 40% | 1017 hPa | 0 mm | - | - | - |
| 1788452812 | 27.22° C | 41% | 1019 hPa | 0 mm | - | - | - |
| 1788452211 | 27.78° C | 41% | 1019 hPa | 0 mm | - | - | - |
| 1788451611 | 27.78° C | 41% | 1019 hPa | 0 mm | - | - | - |
| 1788451010 | 27.22° C | 42% | 1017 hPa | 0 mm | - | - | - |
| 1788450409 | 26.11° C | 43% | 1017 hPa | 0 mm | - | - | - |
* Rain latest hour (hover to see other rain measurements)
** Current wind speed in m/s (hover to see current wind gust speed)